Overview Statistics Trail Chart Weather Telemetry Raw packets
 

This is the latest recevied weather packets stored in our database for station/object K0QED. If no packets are shown the sender has not sent any weather packets the latest 10 day(s).

<< 1 2 3 4 5 6 7 >>
Time Temp. Humidity Pressure Rain* Wind** Luminosity Snow
1788614731 16.11° C 67% 1025.7 hPa 0 mm - 36 W/m² -
1788614426 16.11° C 65% 1025.6 hPa 0 mm - 32 W/m² -
1788614121 15.56° C 66% 1025.5 hPa 0 mm - 27 W/m² -
1788613816 15.56° C 67% 1025.4 hPa 0 mm - 25 W/m² -
1788613515 14.44° C 70% 1025.4 hPa 0 mm - 19 W/m² -
1788613211 15° C 67% 1025.2 hPa 0 mm - 15 W/m² -
1788612905 15.56° C 64% 1025.2 hPa 0 mm - 11 W/m² -
1788612601 15.56° C 63% 1025.2 hPa 0 mm - 8 W/m² -
1788612297 15.56° C 63% 1025.1 hPa 0 mm - 5 W/m² -
1788611992 15.56° C 64% 1025 hPa 0 mm - 3 W/m² -
1788611688 15.56° C 64% 1025 hPa 0 mm - 1 W/m² -
1788611383 16.11° C 63% 1025.1 hPa 0 mm - 0 W/m² -
1788611083 16.11° C 64% 1024.6 hPa 0 mm - 0 W/m² -
1788610778 16.11° C 65% 1025 hPa 0 mm - 0 W/m² -
1788610474 16.11° C 66% 1024.9 hPa 0 mm - 0 W/m² -
1788610173 15.56° C 68% 1025 hPa 0 mm - 0 W/m² -
1788609868 15.56° C 71% 1024.7 hPa 0 mm - 0 W/m² -
1788609562 15.56° C 71% 1025 hPa 0 mm - 0 W/m² -
1788609262 15° C 72% 1024.9 hPa 0 mm - 0 W/m² -
1788608957 15° C 75% 1024.9 hPa 0 mm - 0 W/m² -
1788608657 14.44° C 77% 1024.7 hPa 0 mm - 0 W/m² -
1788608356 14.44° C 79% 1024.9 hPa 0 mm - 0 W/m² -
1788608051 14.44° C 79% 1024.7 hPa 0 mm - 0 W/m² -
1788607747 14.44° C 80% 1024.7 hPa 0 mm - 0 W/m² -
1788607442 14.44° C 81% 1024.9 hPa 0 mm - 0 W/m² -

* Rain latest hour (hover to see other rain measurements)
** Current wind speed in m/s (hover to see current wind gust speed)